Location: Ash Swamp
(41.5170°N, 74.6157°W)
Time: 01:54:15
(UTC+00:00)

Cosmos 1842 - Pass Details

Date: 14 July 2020
Orbit: 522 x 536 km, 82.5° (Epoch: 14 August)

Event Time Altitude Azimuth Distance (km) Brightness Sun altitude
Rises 08:40:11 0° 350° (N) 2,694 7.3 -9.6°
Reaches altitude 10° 08:42:21 10° 348° (NNW) 1,800 6.3 -9.2°
Maximum altitude 08:46:17 72° 264° (W) 569 3.2 -8.7°
Drops below altitude 10° 08:50:12 10° 180° (S) 1,786 5.6 -8.1°
Sets 08:52:20 0° 179° (S) 2,672 6.5 -7.8°
